Weather History for Bishop, CA

Change the Weather History Date:

Wednesday, May 9, 2012

  Actual Average Record
Temperature  
Mean Temperature 63 °F 61 °F  
Max Temperature 88 °F 80 °F 93 °F (1960)
Min Temperature 37 °F 43 °F 30 °F (2003)
Degree Days  
Heating Degree Days 2 5  
Month to date heating degree days 36 51  
Since 1 July heating degree days 4138 4093  
Cooling Degree Days 0 1  
Month to date cooling degree days 4 7  
Year to date cooling degree days 14 11  
Growing Degree Days 12 (Base 50)    
Moisture  
Dew Point 17 °F    
Average Humidity 22    
Maximum Humidity 37    
Minimum Humidity 6    
Precipitation  
Precipitation 0.00 in 0.01 in 0.21 in (1949)
Month to date precipitation 0.00 0.05  
Year to date precipitation 2.00 2.74  
Snow  
Snow 0.00 in 0.00 in - ()
Month to date snowfall 0.0 0.0  
Since 1 July snowfall 4.9 6.8  
Snow Depth 0.00 in    
Sea Level Pressure  
Sea Level Pressure 29.88 in    
Wind  
Wind Speed 6 mph (NW)    
Max Wind Speed 14 mph    
Max Gust Speed 33 mph    
Visibility 10 miles    
Events      
T = Trace of Precipitation, MM = Missing Value Source: NWS Daily Summary

Daily Weather History Graph

Daily Weather History Graph

Search for Another Location

Airport:

Trip Planner

Search our weather history database for the weather conditions in past years. The results will help you decide how hot, cold, wet, or windy it might be!

Date:

Astronomy

May. 09, 2012 Rise Set
Actual Time 5:49 AM PDT 7:50 PM PDT
Civil Twilight 5:20 AM PDT 8:19 PM PDT
Nautical Twilight 4:45 AM PDT 8:54 PM PDT
Astronomical Twilight 4:07 AM PDT 9:32 PM PDT
Moon 11:53 PM PDT (5/9) 9:11 AM PDT (5/9)
Length of Visible Light 14h 58m
Length of Day
14h 01m
Waning Gibbous, 82% of the Moon is Illuminated
May 9
Waning Gibbous
May 12
Last Quarter
May 20
New
May 28
First Quarter
Jun 4
Full

Hourly Weather History & Observations

Time (PDT) Temp. Windchill Dew Point Humidity Pressure Visibility Wind Dir Wind Speed Gust Speed Precip Events Conditions
12:56 AM 46.9 °F - 16.0 °F 29% 29.96 in 10.0 mi NW 8.1 mph - N/A   Clear
1:56 AM 45.0 °F 41.2 °F 16.0 °F 31% 29.96 in 10.0 mi NNW 6.9 mph - N/A   Clear
2:56 AM 43.0 °F 39.5 °F 16.0 °F 34% 29.96 in 10.0 mi North 5.8 mph - N/A   Clear
3:56 AM 42.1 °F 37.1 °F 14.0 °F 32% 29.96 in 10.0 mi NNW 8.1 mph - N/A   Clear
4:56 AM 37.9 °F 35.5 °F 14.0 °F 38% 29.98 in 10.0 mi North 3.5 mph - N/A   Clear
5:56 AM 39.0 °F 34.0 °F 14.0 °F 36% 29.98 in 10.0 mi NW 6.9 mph - N/A   Clear
6:56 AM 46.0 °F 44.8 °F 19.0 °F 34% 30.00 in 10.0 mi NNW 3.5 mph - N/A   Clear
7:56 AM 57.0 °F - 16.0 °F 20% 29.99 in 10.0 mi North - - N/A   Clear
8:56 AM 66.0 °F - 17.1 °F 15% 29.98 in 10.0 mi Calm Calm - N/A   Clear
9:56 AM 73.0 °F - 15.1 °F 11% 29.96 in 10.0 mi Variable 3.5 mph - N/A   Clear
10:56 AM 75.9 °F - 12.0 °F 9% 29.94 in 10.0 mi Calm Calm - N/A   Clear
11:56 AM 82.9 °F - 12.0 °F 7% 29.91 in 10.0 mi South 5.8 mph - N/A   Clear
12:56 PM 82.9 °F - 12.0 °F 7% 29.88 in 10.0 mi Variable 6.9 mph - N/A   Clear
1:56 PM 86.0 °F - 12.0 °F 6% 29.84 in 10.0 mi Variable 5.8 mph - N/A   Clear
2:56 PM 86.0 °F - 12.0 °F 6% 29.81 in 10.0 mi Variable 3.5 mph - N/A   Clear
3:56 PM 87.1 °F - 12.9 °F 6% 29.78 in 10.0 mi Variable 5.8 mph - N/A   Clear
4:56 PM 88.0 °F - 12.9 °F 6% 29.77 in 10.0 mi South 6.9 mph - N/A   Clear
5:56 PM 86.0 °F - 12.9 °F 7% 29.75 in 10.0 mi South 5.8 mph - N/A   Clear
6:56 PM 82.9 °F - 26.1 °F 13% 29.74 in 10.0 mi WSW 11.5 mph 18.4 mph N/A   Clear
7:56 PM 79.0 °F - 28.0 °F 15% 29.73 in 10.0 mi West 10.4 mph - N/A   Clear
9:56 PM 70.0 °F - 28.9 °F 22% 29.77 in 10.0 mi North 11.5 mph - N/A   Clear
10:56 PM 64.0 °F - 28.9 °F 27% 29.78 in 10.0 mi NNW 5.8 mph - N/A   Clear
11:56 PM 64.0 °F - 28.9 °F 27% 29.77 in 10.0 mi WNW 4.6 mph - N/A   Clear